| time (UTC) | temp C | wind direction | speed KPH | gust KPH | rain 1hr cm | rain 24hr cm | rain mn cm | humidity % | barometer mb |
| 20260507051835 | 16 | 315 | 1.6 | 0.0 | 0.00 | 0.00 | 0.00 | 70 | 1019.3 |
| 20260507051313 | 16 | 213 | 0.0 | 0.0 | 0.00 | 0.00 | 0.00 | 70 | 1019.3 |
| 20260507050814 | 16 | 206 | 0.0 | 0.0 | 0.00 | 0.00 | 0.00 | 68 | 1019.3 |
| 20260507050337 | 16 | 265 | 0.0 | 0.0 | 0.00 | 0.00 | 0.00 | 68 | 1019.0 |
| 20260507045838 | 16 | 292 | 0.0 | 0.0 | 0.00 | 0.00 | 0.00 | 67 | 1019.3 |
| 20260507045329 | 16 | 280 | 0.0 | 0.0 | 0.00 | 0.00 | 0.00 | 66 | 1019.3 |
| 20260507044830 | 16 | 319 | 0.0 | 0.0 | 0.00 | 0.00 | 0.00 | 65 | 1019.3 |
| 20260507044331 | 17 | 282 | 6.4 | 0.0 | 0.00 | 0.00 | 0.00 | 64 | 1019.3 |
| 20260507043829 | 17 | 276 | 6.4 | 0.0 | 0.00 | 0.00 | 0.00 | 65 | 1019.3 |
| 20260507043330 | 17 | 275 | 4.8 | 0.0 | 0.00 | 0.00 | 0.00 | 65 | 1019.0 |
| 20260507042828 | 17 | 238 | 6.4 | 0.0 | 0.00 | 0.00 | 0.00 | 65 | 1019.0 |
| 20260507042328 | 17 | 219 | 6.4 | 0.0 | 0.00 | 0.00 | 0.00 | 65 | 1019.0 |
| 20260507041829 | 17 | 266 | 4.8 | 0.0 | 0.00 | 0.00 | 0.00 | 65 | 1019.0 |
| 20260507041331 | 17 | 230 | 4.8 | 0.0 | 0.00 | 0.00 | 0.00 | 65 | 1019.0 |
| 20260507040828 | 17 | 208 | 6.4 | 0.0 | 0.00 | 0.00 | 0.00 | 65 | 1019.0 |
| 20260507040327 | 17 | 222 | 8.0 | 0.0 | 0.00 | 0.00 | 0.00 | 65 | 1019.0 |
| 20260507035827 | 17 | 248 | 6.4 | 0.0 | 0.00 | 0.00 | 0.00 | 63 | 1018.6 |
| 20260507035328 | 17 | 188 | 8.0 | 0.0 | 0.00 | 0.00 | 0.00 | 63 | 1018.6 |
| 20260507034828 | 18 | 167 | 9.7 | 0.0 | 0.00 | 0.00 | 0.00 | 63 | 1018.6 |
| 20260507034328 | 18 | 154 | 6.4 | 0.0 | 0.00 | 0.00 | 0.00 | 62 | 1018.6 |
| 20260507033827 | 18 | 154 | 0.0 | 0.0 | 0.00 | 0.00 | 0.00 | 61 | 1018.3 |
| 20260507033327 | 18 | 301 | 1.6 | 0.0 | 0.00 | 0.00 | 0.00 | 60 | 1018.3 |
| 20260507032828 | 18 | 251 | 0.0 | 0.0 | 0.00 | 0.00 | 0.00 | 60 | 1018.3 |
| 20260507032327 | 18 | 273 | 4.8 | 0.0 | 0.00 | 0.00 | 0.00 | 60 | 1018.3 |
| 20260507031826 | 18 | 252 | 6.4 | 0.0 | 0.00 | 0.00 | 0.00 | 60 | 1018.3 |
| 20260507031327 | 19 | 213 | 12.9 | 0.0 | 0.00 | 0.00 | 0.00 | 60 | 1018.3 |
| 20260507030827 | 19 | 188 | 12.9 | 0.0 | 0.00 | 0.00 | 0.00 | 59 | 1017.9 |
| 20260507030328 | 20 | 119 | 9.7 | 0.0 | 0.00 | 0.00 | 0.00 | 57 | 1017.9 |
| 20260507025826 | 20 | 118 | 0.0 | 0.0 | 0.00 | 0.00 | 0.00 | 57 | 1017.6 |
| 20260507025324 | 20 | 74 | 0.0 | 0.0 | 0.00 | 0.00 | 0.00 | 57 | 1017.6 |
| 20260507024825 | 20 | 304 | 0.0 | 0.0 | 0.00 | 0.00 | 0.00 | 56 | 1017.6 |
| 20260507024327 | 20 | 39 | 0.0 | 0.0 | 0.00 | 0.00 | 0.00 | 57 | 1017.6 |
| 20260507023827 | 20 | 47 | 6.4 | 0.0 | 0.00 | 0.00 | 0.00 | 57 | 1017.6 |
| 20260507023325 | 20 | 353 | 9.7 | 0.0 | 0.00 | 0.00 | 0.00 | 56 | 1017.3 |
| 20260507022826 | 20 | 341 | 9.7 | 0.0 | 0.00 | 0.00 | 0.00 | 56 | 1017.3 |
| 20260507022326 | 21 | 3 | 12.9 | 0.0 | 0.00 | 0.00 | 0.00 | 56 | 1017.3 |
| 20260507021824 | 21 | 133 | 16.1 | 0.0 | 0.00 | 0.00 | 0.00 | 55 | 1017.3 |
| 20260507021325 | 21 | 157 | 16.1 | 0.0 | 0.00 | 0.00 | 0.00 | 55 | 1017.3 |
| 20260507020825 | 21 | 132 | 12.9 | 0.0 | 0.00 | 0.00 | 0.00 | 54 | 1017.3 |
| 20260507020323 | 21 | 274 | 14.5 | 0.0 | 0.00 | 0.00 | 0.00 | 54 | 1017.3 |
| 20260507015823 | 21 | 22 | 14.5 | 0.0 | 0.00 | 0.00 | 0.00 | 53 | 1016.9 |
| 20260507015329 | 22 | 23 | 16.1 | 0.0 | 0.00 | 0.00 | 0.00 | 52 | 1016.9 |
| 20260507014825 | 22 | 51 | 11.3 | 0.0 | 0.00 | 0.00 | 0.00 | 50 | 1016.9 |
| 20260507014323 | 23 | 308 | 11.3 | 0.0 | 0.00 | 0.00 | 0.00 | 47 | 1016.9 |
| 20260507013824 | 23 | 256 | 9.7 | 0.0 | 0.00 | 0.00 | 0.00 | 41 | 1016.9 |
| 20260507013325 | 23 | 301 | 9.7 | 0.0 | 0.00 | 0.00 | 0.00 | 40 | 1016.9 |
| 20260507012823 | 23 | 330 | 11.3 | 0.0 | 0.00 | 0.00 | 0.00 | 40 | 1016.9 |
| 20260507012321 | 24 | 329 | 12.9 | 0.0 | 0.00 | 0.00 | 0.00 | 39 | 1016.6 |
| 20260507011822 | 25 | 297 | 12.9 | 0.0 | 0.00 | 0.00 | 0.00 | 38 | 1016.6 |
| 20260507011324 | 25 | 332 | 12.9 | 0.0 | 0.00 | 0.00 | 0.00 | 37 | 1016.6 |
| 20260507010821 | 25 | 344 | 9.7 | 0.0 | 0.00 | 0.00 | 0.00 | 36 | 1016.6 |
| 20260507010321 | 26 | 322 | 16.1 | 0.0 | 0.00 | 0.00 | 0.00 | 36 | 1016.6 |
| 20260507005821 | 26 | 325 | 9.7 | 0.0 | 0.00 | 0.00 | 0.00 | 35 | 1016.6 |
| 20260507005322 | 26 | 331 | 12.9 | 0.0 | 0.00 | 0.00 | 0.00 | 35 | 1016.6 |
| 20260507004821 | 26 | 304 | 12.9 | 0.0 | 0.00 | 0.00 | 0.00 | 35 | 1016.6 |
| 20260507004322 | 26 | 300 | 14.5 | 0.0 | 0.00 | 0.00 | 0.00 | 35 | 1016.6 |
| 20260507003823 | 26 | 307 | 16.1 | 0.0 | 0.00 | 0.00 | 0.00 | 34 | 1016.6 |
| 20260507003321 | 26 | 292 | 14.5 | 0.0 | 0.00 | 0.00 | 0.00 | 33 | 1016.3 |
| 20260507002821 | 26 | 280 | 14.5 | 0.0 | 0.00 | 0.00 | 0.00 | 33 | 1016.3 |
| 20260507002320 | 26 | 342 | 16.1 | 0.0 | 0.00 | 0.00 | 0.00 | 33 | 1016.3 |
| 20260507001820 | 27 | 3 | 16.1 | 0.0 | 0.00 | 0.00 | 0.00 | 33 | 1016.3 |
| 20260507001318 | 27 | 333 | 12.9 | 0.0 | 0.00 | 0.00 | 0.00 | 32 | 1016.3 |
| 20260507000819 | 27 | 338 | 12.9 | 0.0 | 0.00 | 0.00 | 0.00 | 32 | 1016.3 |
| 20260507000321 | 27 | 304 | 14.5 | 0.0 | 0.00 | 0.00 | 0.00 | 32 | 1016.3 |
| 20260506235819 | 27 | 328 | 9.7 | 0.0 | 0.00 | 0.00 | 0.00 | 31 | 1016.3 |
| 20260506235321 | 27 | 340 | 16.1 | 0.0 | 0.00 | 0.00 | 0.00 | 32 | 1016.3 |
| 20260506234819 | 27 | 187 | 17.7 | 0.0 | 0.00 | 0.00 | 0.00 | 31 | 1016.3 |
| 20260506234319 | 27 | 278 | 12.9 | 0.0 | 0.00 | 0.00 | 0.00 | 30 | 1016.3 |
| 20260506233818 | 27 | 305 | 14.5 | 0.0 | 0.00 | 0.00 | 0.00 | 30 | 1016.3 |
| 20260506233319 | 27 | 294 | 14.5 | 0.0 | 0.00 | 0.00 | 0.00 | 30 | 1016.3 |
| 20260506232821 | 27 | 275 | 14.5 | 0.0 | 0.00 | 0.00 | 0.00 | 31 | 1016.3 |
| 20260506232319 | 27 | 315 | 17.7 | 0.0 | 0.00 | 0.00 | 0.00 | 31 | 1016.3 |
| 20260506231818 | 27 | 299 | 12.9 | 0.0 | 0.00 | 0.00 | 0.00 | 31 | 1016.3 |
| 20260506231317 | 27 | 21 | 16.1 | 0.0 | 0.00 | 0.00 | 0.00 | 30 | 1016.3 |
| 20260506230817 | 27 | 324 | 17.7 | 0.0 | 0.00 | 0.00 | 0.00 | 30 | 1016.3 |
| 20260506230317 | 27 | 336 | 12.9 | 0.0 | 0.00 | 0.00 | 0.00 | 31 | 1016.3 |
| 20260506225817 | 27 | 325 | 16.1 | 0.0 | 0.00 | 0.00 | 0.00 | 30 | 1016.3 |
| 20260506225318 | 27 | 37 | 19.3 | 0.0 | 0.00 | 0.00 | 0.00 | 31 | 1016.3 |
| 20260506224816 | 27 | 262 | 12.9 | 0.0 | 0.00 | 0.00 | 0.00 | 30 | 1016.3 |
| 20260506224316 | 27 | 314 | 14.5 | 0.0 | 0.00 | 0.00 | 0.00 | 30 | 1016.3 |
| 20260506223816 | 27 | 321 | 16.1 | 0.0 | 0.00 | 0.00 | 0.00 | 30 | 1016.6 |
| 20260506223321 | 27 | 320 | 19.3 | 0.0 | 0.00 | 0.00 | 0.00 | 30 | 1016.6 |
| 20260506222816 | 27 | 306 | 17.7 | 0.0 | 0.00 | 0.00 | 0.00 | 30 | 1016.6 |
| 20260506222316 | 27 | 7 | 17.7 | 0.0 | 0.00 | 0.00 | 0.00 | 30 | 1016.6 |
| 20260506221816 | 27 | 340 | 12.9 | 0.0 | 0.00 | 0.00 | 0.00 | 30 | 1016.6 |
| 20260506221315 | 27 | 337 | 8.0 | 0.0 | 0.00 | 0.00 | 0.00 | 31 | 1016.6 |
| 20260506220815 | 26 | 150 | 14.5 | 0.0 | 0.00 | 0.00 | 0.00 | 32 | 1016.6 |
| 20260506220315 | 26 | 149 | 14.5 | 0.0 | 0.00 | 0.00 | 0.00 | 33 | 1016.9 |
| 20260506215815 | 26 | 97 | 12.9 | 0.0 | 0.00 | 0.00 | 0.00 | 33 | 1016.9 |
| 20260506215316 | 26 | 103 | 11.3 | 0.0 | 0.00 | 0.00 | 0.00 | 33 | 1016.9 |
| 20260506214818 | 26 | 134 | 11.3 | 0.0 | 0.00 | 0.00 | 0.00 | 33 | 1017.3 |
| 20260506214315 | 26 | 138 | 11.3 | 0.0 | 0.00 | 0.00 | 0.00 | 33 | 1017.3 |
| 20260506213815 | 26 | 153 | 12.9 | 0.0 | 0.00 | 0.00 | 0.00 | 33 | 1017.3 |
| 20260506213314 | 26 | 158 | 12.9 | 0.0 | 0.00 | 0.00 | 0.00 | 34 | 1017.3 |
| 20260506212814 | 26 | 212 | 11.3 | 0.0 | 0.00 | 0.00 | 0.00 | 34 | 1017.3 |
| 20260506212315 | 26 | 117 | 11.3 | 0.0 | 0.00 | 0.00 | 0.00 | 33 | 1017.3 |
| 20260506211815 | 26 | 145 | 16.1 | 0.0 | 0.00 | 0.00 | 0.00 | 34 | 1017.3 |
| 20260506211314 | 26 | 109 | 17.7 | 0.0 | 0.00 | 0.00 | 0.00 | 33 | 1017.6 |
| 20260506210816 | 25 | 21 | 17.7 | 0.0 | 0.00 | 0.00 | 0.00 | 35 | 1017.6 |
| 20260506210313 | 26 | 122 | 9.7 | 0.0 | 0.00 | 0.00 | 0.00 | 34 | 1017.6 |
| 20260506205812 | 26 | 100 | 9.7 | 0.0 | 0.00 | 0.00 | 0.00 | 34 | 1017.6 |
| 20260506205313 | 25 | 112 | 12.9 | 0.0 | 0.00 | 0.00 | 0.00 | 35 | 1017.6 |
| 20260506204812 | 25 | 117 | 12.9 | 0.0 | 0.00 | 0.00 | 0.00 | 36 | 1017.6 |
| 20260506204317 | 25 | 159 | 14.5 | 0.0 | 0.00 | 0.00 | 0.00 | 36 | 1017.9 |
| 20260506203812 | 25 | 153 | 14.5 | 0.0 | 0.00 | 0.00 | 0.00 | 36 | 1017.9 |
| 20260506203314 | 25 | 42 | 11.3 | 0.0 | 0.00 | 0.00 | 0.00 | 35 | 1018.3 |
| 20260506202812 | 25 | 356 | 9.7 | 0.0 | 0.00 | 0.00 | 0.00 | 34 | 1018.3 |
| 20260506202312 | 25 | 147 | 11.3 | 0.0 | 0.00 | 0.00 | 0.00 | 36 | 1018.3 |
| 20260506201811 | 24 | 339 | 11.3 | 0.0 | 0.00 | 0.00 | 0.00 | 37 | 1018.3 |
| 20260506201314 | 25 | 84 | 11.3 | 0.0 | 0.00 | 0.00 | 0.00 | 36 | 1018.3 |
| 20260506200814 | 25 | 255 | 11.3 | 0.0 | 0.00 | 0.00 | 0.00 | 37 | 1018.3 |
| 20260506200314 | 24 | 20 | 19.3 | 0.0 | 0.00 | 0.00 | 0.00 | 37 | 1018.6 |
| 20260506195811 | 24 | 259 | 14.5 | 0.0 | 0.00 | 0.00 | 0.00 | 37 | 1018.6 |
| 20260506195312 | 23 | 40 | 12.9 | 0.0 | 0.00 | 0.00 | 0.00 | 39 | 1018.6 |
| 20260506194820 | 23 | 135 | 12.9 | 0.0 | 0.00 | 0.00 | 0.00 | 39 | 1018.6 |
| 20260506194313 | 24 | 36 | 9.7 | 0.0 | 0.00 | 0.00 | 0.00 | 40 | 1019.0 |
| 20260506193812 | 24 | 134 | 9.7 | 0.0 | 0.00 | 0.00 | 0.00 | 38 | 1019.0 |
| 20260506193310 | 25 | 112 | 9.7 | 0.0 | 0.00 | 0.00 | 0.00 | 38 | 1019.0 |
| 20260506192812 | 23 | 346 | 9.7 | 0.0 | 0.00 | 0.00 | 0.00 | 39 | 1019.0 |
| 20260506192313 | 23 | 59 | 11.3 | 0.0 | 0.00 | 0.00 | 0.00 | 40 | 1019.0 |
| 20260506191814 | 23 | 301 | 11.3 | 0.0 | 0.00 | 0.00 | 0.00 | 41 | 1019.3 |
| 20260506191314 | 23 | 19 | 9.7 | 0.0 | 0.00 | 0.00 | 0.00 | 41 | 1019.3 |
| 20260506190810 | 23 | 94 | 9.7 | 0.0 | 0.00 | 0.00 | 0.00 | 41 | 1019.3 |
| 20260506190309 | 22 | 107 | 9.7 | 0.0 | 0.00 | 0.00 | 0.00 | 43 | 1019.3 |
| 20260506185810 | 22 | 213 | 11.3 | 0.0 | 0.00 | 0.00 | 0.00 | 42 | 1019.3 |
| 20260506185311 | 23 | 133 | 8.0 | 0.0 | 0.00 | 0.00 | 0.00 | 41 | 1019.3 |
| 20260506184813 | 23 | 59 | 11.3 | 0.0 | 0.00 | 0.00 | 0.00 | 41 | 1019.3 |
| 20260506184313 | 23 | 352 | 11.3 | 0.0 | 0.00 | 0.00 | 0.00 | 42 | 1019.6 |
| 20260506183811 | 22 | 347 | 9.7 | 0.0 | 0.00 | 0.00 | 0.00 | 43 | 1019.6 |
| 20260506183313 | 22 | 132 | 1.6 | 0.0 | 0.00 | 0.00 | 0.00 | 43 | 1019.6 |
| 20260506182810 | 22 | 186 | 11.3 | 0.0 | 0.00 | 0.00 | 0.00 | 43 | 1019.6 |
| 20260506182310 | 22 | 76 | 11.3 | 0.0 | 0.00 | 0.00 | 0.00 | 43 | 1020.0 |
| 20260506181811 | 21 | 79 | 9.7 | 0.0 | 0.00 | 0.00 | 0.00 | 44 | 1020.0 |
| 20260506181312 | 21 | 66 | 9.7 | 0.0 | 0.00 | 0.00 | 0.00 | 44 | 1020.0 |
| 20260506180813 | 21 | 15 | 6.4 | 0.0 | 0.00 | 0.00 | 0.00 | 45 | 1020.0 |
| 20260506180310 | 21 | 130 | 9.7 | 0.0 | 0.00 | 0.00 | 0.00 | 47 | 1020.3 |
| 20260506175812 | 20 | 73 | 11.3 | 0.0 | 0.00 | 0.00 | 0.00 | 47 | 1020.3 |
| 20260506175309 | 20 | 96 | 11.3 | 0.0 | 0.00 | 0.00 | 0.00 | 48 | 1020.3 |
| 20260506174815 | 20 | 113 | 9.7 | 0.0 | 0.00 | 0.00 | 0.00 | 47 | 1020.3 |
| 20260506174312 | 20 | 16 | 9.7 | 0.0 | 0.00 | 0.00 | 0.00 | 47 | 1020.3 |
| 20260506173813 | 20 | 36 | 8.0 | 0.0 | 0.00 | 0.00 | 0.00 | 47 | 1020.3 |
| 20260506173314 | 20 | 118 | 8.0 | 0.0 | 0.00 | 0.00 | 0.00 | 48 | 1020.3 |
| 20260506172812 | 20 | 326 | 0.0 | 0.0 | 0.00 | 0.00 | 0.00 | 47 | 1020.3 |
| 20260506172325 | 20 | 340 | 0.0 | 0.0 | 0.00 | 0.00 | 0.00 | 47 | 1020.3 |
| 20260506171823 | 19 | 297 | 0.0 | 0.0 | 0.00 | 0.00 | 0.00 | 48 | 1020.3 |
| 20260506171322 | 19 | 355 | 0.0 | 0.0 | 0.00 | 0.00 | 0.00 | 46 | 1020.3 |
| 20260506170822 | 19 | 274 | 0.0 | 0.0 | 0.00 | 0.00 | 0.00 | 47 | 1020.3 |
| 20260506170321 | 19 | 36 | 8.0 | 0.0 | 0.00 | 0.00 | 0.00 | 47 | 1020.3 |
| 20260506165824 | 19 | 105 | 8.0 | 0.0 | 0.00 | 0.00 | 0.00 | 47 | 1020.3 |
| 20260506165321 | 18 | 160 | 9.7 | 0.0 | 0.00 | 0.00 | 0.00 | 48 | 1020.3 |
| 20260506164820 | 18 | 150 | 9.7 | 0.0 | 0.00 | 0.00 | 0.00 | 46 | 1020.3 |
| 20260506164322 | 18 | 69 | 8.0 | 0.0 | 0.00 | 0.00 | 0.00 | 47 | 1020.3 |
| 20260506163821 | 18 | 82 | 0.0 | 0.0 | 0.00 | 0.00 | 0.00 | 48 | 1020.3 |
| 20260506163321 | 18 | 140 | 0.0 | 0.0 | 0.00 | 0.00 | 0.00 | 48 | 1020.3 |
| 20260506162821 | 18 | 113 | 0.0 | 0.0 | 0.00 | 0.00 | 0.00 | 48 | 1020.3 |
| 20260506162321 | 18 | 144 | 0.0 | 0.0 | 0.00 | 0.00 | 0.00 | 48 | 1020.3 |
| 20260506161821 | 18 | 118 | 0.0 | 0.0 | 0.00 | 0.00 | 0.00 | 50 | 1020.3 |
| 20260506161319 | 18 | 140 | 0.0 | 0.0 | 0.00 | 0.00 | 0.00 | 55 | 1020.3 |
| 20260506160819 | 17 | 57 | 0.0 | 0.0 | 0.00 | 0.00 | 0.00 | 57 | 1020.3 |
| 20260506160319 | 17 | 166 | 6.4 | 0.0 | 0.00 | 0.00 | 0.00 | 59 | 1020.3 |
| 20260506155819 | 17 | 162 | 6.4 | 0.0 | 0.00 | 0.00 | 0.00 | 59 | 1020.3 |
| 20260506155319 | 17 | 38 | 6.4 | 0.0 | 0.00 | 0.00 | 0.00 | 59 | 1020.3 |
| 20260506154825 | 17 | 15 | 6.4 | 0.0 | 0.00 | 0.00 | 0.00 | 60 | 1020.3 |
| 20260506154321 | 16 | 0 | 6.4 | 0.0 | 0.00 | 0.00 | 0.00 | 61 | 1020.3 |
| 20260506153819 | 16 | 345 | 0.0 | 0.0 | 0.00 | 0.00 | 0.00 | 62 | 1020.3 |
| 20260506153318 | 16 | 35 | 0.0 | 0.0 | 0.00 | 0.00 | 0.00 | 63 | 1020.3 |
| 20260506152817 | 16 | 321 | 0.0 | 0.0 | 0.00 | 0.00 | 0.00 | 63 | 1020.3 |
| 20260506152318 | 16 | 154 | 0.0 | 0.0 | 0.00 | 0.00 | 0.00 | 64 | 1020.3 |
| 20260506151818 | 16 | 37 | 0.0 | 0.0 | 0.00 | 0.00 | 0.00 | 65 | 1020.3 |
| 20260506151317 | 15 | 253 | 0.0 | 0.0 | 0.00 | 0.00 | 0.00 | 66 | 1020.3 |
| 20260506150821 | 15 | 31 | 0.0 | 0.0 | 0.00 | 0.00 | 0.00 | 66 | 1020.3 |
| 20260506150317 | 15 | 309 | 1.6 | 0.0 | 0.00 | 0.00 | 0.00 | 66 | 1020.3 |
| 20260506145817 | 14 | 63 | 3.2 | 0.0 | 0.00 | 0.00 | 0.00 | 67 | 1020.3 |
| 20260506145318 | 14 | 115 | 3.2 | 0.0 | 0.00 | 0.00 | 0.00 | 70 | 1020.3 |
| 20260506144818 | 13 | 347 | 0.0 | 0.0 | 0.00 | 0.00 | 0.00 | 72 | 1020.3 |
| 20260506144317 | 12 | 328 | 0.0 | 0.0 | 0.00 | 0.00 | 0.00 | 74 | 1020.3 |
| 20260506143818 | 12 | 335 | 0.0 | 0.0 | 0.00 | 0.00 | 0.00 | 74 | 1020.3 |
| 20260506143315 | 12 | 336 | 0.0 | 0.0 | 0.00 | 0.03 | 0.00 | 76 | 1020.3 |
| 20260506142817 | 12 | 46 | 0.0 | 0.0 | 0.00 | 0.03 | 0.00 | 76 | 1020.3 |
| 20260506142316 | 12 | 4 | 0.0 | 0.0 | 0.00 | 0.03 | 0.00 | 75 | 1020.3 |
| 20260506141817 | 12 | 22 | 0.0 | 0.0 | 0.00 | 0.03 | 0.00 | 74 | 1020.3 |
| 20260506141314 | 12 | 31 | 0.0 | 0.0 | 0.00 | 0.03 | 0.00 | 72 | 1020.3 |
| 20260506140817 | 12 | 117 | 0.0 | 0.0 | 0.00 | 0.03 | 0.00 | 76 | 1020.3 |
| 20260506140316 | 11 | 49 | 0.0 | 0.0 | 0.00 | 0.03 | 0.00 | 77 | 1020.3 |
| 20260506135816 | 11 | 111 | 0.0 | 0.0 | 0.00 | 0.03 | 0.00 | 78 | 1020.0 |
| 20260506135315 | 11 | 124 | 0.0 | 0.0 | 0.00 | 0.03 | 0.00 | 80 | 1020.0 |
| 20260506134815 | 11 | 154 | 0.0 | 0.0 | 0.00 | 0.03 | 0.00 | 82 | 1020.0 |
| 20260506134315 | 10 | 114 | 0.0 | 0.0 | 0.00 | 0.03 | 0.00 | 84 | 1020.0 |
| 20260506133815 | 10 | 104 | 0.0 | 0.0 | 0.00 | 0.03 | 0.00 | 86 | 1020.0 |
| 20260506133313 | 10 | 229 | 0.0 | 0.0 | 0.00 | 0.03 | 0.00 | 88 | 1020.0 |
| 20260506132815 | 9 | 272 | 0.0 | 0.0 | 0.00 | 0.03 | 0.00 | 88 | 1019.6 |
| 20260506132313 | 8 | 235 | 0.0 | 0.0 | 0.00 | 0.03 | 0.00 | 88 | 1019.6 |
| 20260506131814 | 8 | 236 | 0.0 | 0.0 | 0.00 | 0.03 | 0.00 | 88 | 1019.6 |
| 20260506131313 | 8 | 283 | 0.0 | 0.0 | 0.00 | 0.03 | 0.00 | 88 | 1019.6 |
| 20260506130812 | 8 | 234 | 3.2 | 0.0 | 0.00 | 0.03 | 0.00 | 89 | 1019.6 |
| 20260506130312 | 8 | 249 | 6.4 | 0.0 | 0.00 | 0.03 | 0.00 | 88 | 1019.6 |
| 20260506125812 | 8 | 268 | 6.4 | 0.0 | 0.00 | 0.03 | 0.00 | 88 | 1019.6 |
| 20260506125315 | 8 | 261 | 0.0 | 0.0 | 0.00 | 0.03 | 0.00 | 89 | 1019.6 |
| 20260506124814 | 8 | 205 | 0.0 | 0.0 | 0.00 | 0.03 | 0.00 | 89 | 1019.6 |
| 20260506124313 | 8 | 226 | 0.0 | 0.0 | 0.00 | 0.03 | 0.00 | 89 | 1019.6 |
| 20260506123811 | 8 | 231 | 0.0 | 0.0 | 0.00 | 0.03 | 0.00 | 89 | 1019.3 |
| 20260506123313 | 8 | 182 | 0.0 | 0.0 | 0.00 | 0.03 | 0.00 | 89 | 1019.3 |
| 20260506122811 | 8 | 252 | 0.0 | 0.0 | 0.00 | 0.03 | 0.00 | 89 | 1019.3 |
| 20260506122312 | 8 | 274 | 0.0 | 0.0 | 0.00 | 0.03 | 0.00 | 89 | 1019.3 |
| 20260506121811 | 8 | 207 | 0.0 | 0.0 | 0.00 | 0.03 | 0.00 | 89 | 1019.3 |
| 20260506121313 | 8 | 216 | 0.0 | 0.0 | 0.00 | 0.03 | 0.00 | 89 | 1019.3 |
| 20260506120810 | 8 | 224 | 0.0 | 0.0 | 0.00 | 0.03 | 0.00 | 89 | 1019.3 |
| 20260506120314 | 8 | 222 | 0.0 | 0.0 | 0.00 | 0.03 | 0.00 | 89 | 1019.3 |
| 20260506115812 | 8 | 247 | 0.0 | 0.0 | 0.00 | 0.03 | 0.00 | 87 | 1019.3 |
| 20260506115314 | 8 | 286 | 0.0 | 0.0 | 0.00 | 0.03 | 0.00 | 88 | 1019.3 |
| 20260506114811 | 8 | 274 | 0.0 | 0.0 | 0.00 | 0.03 | 0.00 | 89 | 1019.3 |
| 20260506114309 | 8 | 247 | 0.0 | 0.0 | 0.00 | 0.03 | 0.00 | 89 | 1019.3 |
| 20260506113813 | 7 | 233 | 0.0 | 0.0 | 0.00 | 0.03 | 0.00 | 87 | 1019.3 |
| 20260506113313 | 8 | 294 | 0.0 | 0.0 | 0.00 | 0.03 | 0.00 | 86 | 1019.3 |
| 20260506112812 | 8 | 292 | 0.0 | 0.0 | 0.00 | 0.03 | 0.00 | 86 | 1019.3 |
| 20260506112312 | 8 | 293 | 0.0 | 0.0 | 0.00 | 0.03 | 0.00 | 86 | 1019.3 |
| 20260506111813 | 8 | 304 | 0.0 | 0.0 | 0.00 | 0.03 | 0.00 | 85 | 1019.3 |
| 20260506111311 | 8 | 292 | 0.0 | 0.0 | 0.00 | 0.03 | 0.00 | 84 | 1019.3 |
| 20260506110814 | 8 | 318 | 0.0 | 0.0 | 0.00 | 0.03 | 0.00 | 84 | 1019.3 |
| 20260506110310 | 8 | 269 | 0.0 | 0.0 | 0.00 | 0.03 | 0.00 | 84 | 1019.3 |
| 20260506105811 | 8 | 282 | 0.0 | 0.0 | 0.00 | 0.03 | 0.00 | 83 | 1019.3 |
| 20260506105314 | 9 | 266 | 0.0 | 0.0 | 0.00 | 0.03 | 0.00 | 83 | 1019.3 |
| 20260506104813 | 9 | 309 | 0.0 | 0.0 | 0.00 | 0.03 | 0.00 | 83 | 1019.3 |
| 20260506104313 | 10 | 297 | 0.0 | 0.0 | 0.00 | 0.03 | 0.00 | 83 | 1019.3 |
| 20260506103811 | 10 | 293 | 0.0 | 0.0 | 0.00 | 0.03 | 0.00 | 84 | 1019.3 |
| 20260506103313 | 10 | 218 | 0.0 | 0.0 | 0.00 | 0.03 | 0.00 | 84 | 1019.3 |
| 20260506102812 | 10 | 252 | 0.0 | 0.0 | 0.00 | 0.03 | 0.00 | 84 | 1019.0 |
| 20260506102312 | 10 | 293 | 0.0 | 0.0 | 0.00 | 0.03 | 0.00 | 84 | 1019.3 |
| 20260506101810 | 10 | 255 | 4.8 | 0.0 | 0.00 | 0.03 | 0.00 | 84 | 1019.0 |
| 20260506101313 | 10 | 236 | 6.4 | 0.0 | 0.00 | 0.03 | 0.00 | 85 | 1019.0 |
| 20260506100812 | 10 | 248 | 6.4 | 0.0 | 0.00 | 0.03 | 0.00 | 85 | 1019.0 |
| 20260506100311 | 10 | 245 | 3.2 | 0.0 | 0.00 | 0.03 | 0.00 | 85 | 1019.0 |
| 20260506095828 | 10 | 246 | 4.8 | 0.0 | 0.00 | 0.03 | 0.00 | 84 | 1019.0 |
| 20260506095329 | 10 | 154 | 4.8 | 0.0 | 0.00 | 0.03 | 0.00 | 84 | 1019.0 |
| 20260506094828 | 10 | 205 | 6.4 | 0.0 | 0.00 | 0.05 | 0.00 | 84 | 1019.0 |
| 20260506094329 | 10 | 235 | 6.4 | 0.0 | 0.00 | 0.05 | 0.00 | 84 | 1019.0 |
| 20260506093829 | 10 | 296 | 4.8 | 0.0 | 0.00 | 0.05 | 0.00 | 84 | 1019.0 |
| 20260506093328 | 10 | 326 | 4.8 | 0.0 | 0.00 | 0.05 | 0.00 | 83 | 1019.0 |
| 20260506092831 | 10 | 306 | 4.8 | 0.0 | 0.00 | 0.05 | 0.00 | 83 | 1019.0 |
| 20260506092330 | 10 | 303 | 6.4 | 0.0 | 0.00 | 0.05 | 0.00 | 82 | 1019.0 |
| 20260506091827 | 10 | 305 | 6.4 | 0.0 | 0.00 | 0.05 | 0.00 | 82 | 1019.3 |
| 20260506091327 | 10 | 306 | 0.0 | 0.0 | 0.00 | 0.05 | 0.00 | 82 | 1019.3 |
| 20260506090827 | 10 | 4 | 0.0 | 0.0 | 0.00 | 0.05 | 0.00 | 82 | 1019.3 |
| 20260506090328 | 10 | 358 | 6.4 | 0.0 | 0.00 | 0.05 | 0.00 | 82 | 1019.3 |
| 20260506085829 | 10 | 147 | 4.8 | 0.0 | 0.00 | 0.05 | 0.00 | 81 | 1019.3 |
| 20260506085328 | 10 | 291 | 6.4 | 0.0 | 0.00 | 0.05 | 0.00 | 81 | 1019.3 |
| 20260506084827 | 10 | 284 | 0.0 | 0.0 | 0.00 | 0.05 | 0.00 | 81 | 1019.3 |
| 20260506084326 | 10 | 271 | 1.6 | 0.0 | 0.00 | 0.05 | 0.00 | 81 | 1019.3 |
| 20260506083825 | 11 | 163 | 9.7 | 0.0 | 0.00 | 0.05 | 0.00 | 81 | 1019.3 |
| 20260506083325 | 11 | 46 | 9.7 | 0.0 | 0.00 | 0.05 | 0.00 | 81 | 1019.3 |
| 20260506082826 | 11 | 276 | 8.0 | 0.0 | 0.00 | 0.05 | 0.00 | 81 | 1019.6 |
| 20260506082328 | 11 | 87 | 9.7 | 0.0 | 0.00 | 0.05 | 0.00 | 81 | 1019.6 |
| 20260506081827 | 11 | 132 | 8.0 | 0.0 | 0.00 | 0.05 | 0.00 | 81 | 1019.6 |
| 20260506081325 | 11 | 100 | 12.9 | 0.0 | 0.00 | 0.05 | 0.00 | 81 | 1019.6 |
| 20260506080825 | 11 | 112 | 12.9 | 0.0 | 0.00 | 0.05 | 0.00 | 81 | 1019.6 |
| 20260506080328 | 11 | 93 | 6.4 | 0.0 | 0.00 | 0.05 | 0.00 | 81 | 1019.6 |
| 20260506073322 | 11 | 100 | 0.0 | 0.0 | 0.00 | 0.08 | 0.00 | 79 | 1019.6 |
| 20260506072822 | 11 | 122 | 4.8 | 0.0 | 0.00 | 0.08 | 0.00 | 79 | 1019.6 |
| 20260506072324 | 12 | 113 | 14.5 | 0.0 | 0.00 | 0.08 | 0.00 | 79 | 1019.6 |
| 20260506071824 | 12 | 116 | 14.5 | 0.0 | 0.00 | 0.08 | 0.00 | 79 | 1019.6 |
| 20260506071322 | 12 | 122 | 14.5 | 0.0 | 0.00 | 0.08 | 0.00 | 79 | 1019.6 |
| 20260506070824 | 12 | 118 | 16.1 | 0.0 | 0.00 | 0.08 | 0.00 | 79 | 1019.6 |
| 20260506070322 | 12 | 172 | 16.1 | 0.0 | 0.00 | 0.08 | 0.00 | 79 | 1019.6 |
| 20260506062322 | 12 | 89 | 16.1 | 0.0 | 0.00 | 0.08 | 0.08 | 77 | 1019.3 |
| 20260506061824 | 12 | 164 | 16.1 | 0.0 | 0.00 | 0.08 | 0.08 | 78 | 1019.3 |
| 20260506061322 | 12 | 125 | 16.1 | 0.0 | 0.00 | 0.08 | 0.08 | 78 | 1019.3 |
| 20260506060820 | 12 | 155 | 16.1 | 0.0 | 0.00 | 0.08 | 0.08 | 78 | 1019.3 |
| 20260506060323 | 12 | 114 | 16.1 | 0.0 | 0.00 | 0.08 | 0.08 | 78 | 1019.3 |